CAPE
0 0 0 0 0 0 0 0 0 0 0 0 0 0 0 0 0 0 0 0 0 0 0 0 0 0 0 0 0 0 0 0 0 0 0 0 0 0 0 0 0 0 0
0 0 0 0 0 0 0 0 0 0 0 0 0 0 0 0 0 0 0 0 0 0 0 0 0 0 0 0 0 0 0 0 0 0 0 0 0 0 0 0 0 0 0
0 0 0 0 0 0 0 0 0 0 0 0 0 0 0 0 0 0 0 0 0 0 0 0 0 0 0 0 0 0 0 0 0 0 0 0 0 0 0 0 0 0 0
0 0 0 0 0 0 0 0 0 0 0 0 0 0 0 0 0 0 0 0 0 0 0 0 0 0 0 0 0 0 0 0 0 0 0 0 0 0 0 0 0 0 0
0 0 0 0 0 0 0 0 0 0 0 0 0 0 0 0 0 0 0 0 0 0 0 0 0 0 0 0 0 0 0 0 0 0 0 0 0 0 0 0 0 0 0
0 0 0 0 0 0 0 0 0 0 0 0 0 0 0 0 0 0 0 0 0 0 0 0 0 0 0 0 0 0 0 0 0 0 0 0 0 0 0 0 0 0 0
0 0 0 0 0 0 0 0 0 0 0 0 0 0 0 0 0 0 0 0 0 0 0 0 0 0 0 0 0 1 0 0 0 0 0 0 0 0 0 0 0 0 0
0 0 0 0 0 0 0 0 0 0 0 0 0 0 0 0 0 0 0 0 0 0 0 0 0 0 0 0 0 0 0 0 0 0 0 0 0 0 0 0 0 0 0
0 0 0 0 0 0 0 0 0 0 0 0 0 0 0 0 0 0 0 0 0 0 0 0 0 0 0 0 0 0 0 0 0 2 0 0 0 0 0 0 0 0 0
0 0 0 0 0 0 0 0 0 0 0 2 1 1 0 0 1 2 2 0 1 0 0 0 0 0 0 0 0 0 0 0 0 0 0 6 0 0 0 0 0 0 0
0 0 0 0 0 0 0 0 0 0 3 0 2 0 1 3 1 17 13 4 4 5 2 0 0 1 9 9 4 0 0 0 0 0 0 0 0 0 0 0 0 0 0
0 0 0 0 0 0 0 0 0 0 0 0 0 0 2 8 20 19 28 27 15 3 1 5 4 8 19 29 21 5 4 5 0 0 0 0 0 0 0 0 0 0 0
0 0 0 0 0 0 0 0 0 0 0 0 3 1 2 6 5 17 35 39 33 5 4 15 51 30 29 21 17 18 7 1 0 0 0 0 0 0 0 0 0 0 0
0 0 0 0 0 0 0 1 0 0 0 0 0 0 0 0 0 0 0 0 1 0 9 12 30 38 32 14 1 20 4 0 0 0 0 0 0 0 0 0 0 0 0
0 0 0 0 0 0 0 0 0 0 2 0 0 0 1 2 3 24 27 4 0 4 7 6 9 0 12 15 33 2 0 0 0 0 0 0 0 0 0 0 0 0 0
0 0 0 0 0 0 0 0 6 19 33 41 49 38 9 67 71 73 80 80 72 65 9 9 11 11 7 18 23 0 0 0 0 0 0 0 0 0 0 0 0 0 0
0 0 0 0 0 0 0 0 0 0 17 18 22 33 46 50 57 61 76 78 80 61 6 0 11 5 1 25 0 0 0 0 0 0 0 0 0 0 0 0 0 0 0
0 0 0 0 0 0 0 0 0 0 0 0 0 6 16 35 35 40 56 64 3 2 0 1 0 1 2 0 0 0 0 0 0 0 0 0 0 0 0 0 0 0 0
0 0 0 0 0 0 0 0 0 0 0 0 0 0 1 5 10 16 20 0 0 0 0 0 0 0 0 0 0 0 0 0 0 0 0 0 0 0 0 0 0 0 0
0 0 0 0 0 0 0 0 0 0 0 1 2 0 0 0 0 2 2 0 0 0 0 0 0 0 0 0 0 0 0 0 0 0 0 0 0 0 0 0 0 0 0
0 0 0 0 0 0 0 0 0 0 0 0 0 2 42 0 0 0 0 0 0 0 0 0 0 0 0 0 0 0 0 0 0 0 0 0 0 0 0 0 0 0 0
0 0 0 0 0 0 0 0 0 0 0 0 0 1 21 0 0 0 0 0 0 0 0 0 0 0 0 0 0 0 0 0 0 0 0 0 0 0 0 0 0 0 0
0 0 0 0 0 0 0 0 0 0 0 0 0 0 0 0 0 0 0 0 0 0 0 0 0 0 0 0 0 0 0 0 0 0 0 0 0 0 0 0 0 0 0
0 0 0 0 0 0 0 0 0 0 0 0 0 0 0 0 0 0 0 0 0 0 0 0 0 0 0 0 0 0 0 0 0 0 0 0 0 0 0 0 0 0 0
0 0 0 0 0 0 0 0 0 0 0 0 0 0 0 0 0 0 0 0 0 0 0 0 0 0 0 0 0 0 0 0 0 0 0 0 0 0 0 0 0 0 0
0 0 0 0 0 0 0 0 0 0 0 0 0 0 0 0 0 0 0 0 0 0 0 0 0 0 0 0 0 1 0 2 0 0 0 0 0 0 0 0 0 0 0
CIN
0 0 0 0 0 0 0 0 0 0 0 0 0 0 0 0 0 0 0 0 0 0 0 0 0 0 0 0 0 0 0 0 0 0 0 0 0 0 0 0 0 0 0
0 0 0 0 0 0 0 0 0 0 0 0 0 0 0 0 0 0 0 0 0 0 0 0 0 0 0 0 0 0 0 0 0 0 0 0 0 0 0 0 0 0 0
0 0 0 0 0 0 0 0 0 0 0 0 0 0 0 0 0 0 0 0 0 0 0 0 0 0 0 0 0 0 0 0 0 0 0 0 0 0 0 0 0 0 0
0 0 0 0 0 0 0 0 0 0 0 0 0 0 0 0 0 0 0 0 0 0 0 0 0 0 0 0 0 0 0 0 0 0 0 0 0 0 0 0 0 0 0
0 0 0 0 0 0 0 0 0 0 0 0 0 0 0 0 0 0 0 0 0 0 0 0 0 0 0 0 0 0 0 0 0 0 0 0 0 0 0 0 0 0 0
0 0 0 0 0 0 0 0 0 0 0 0 0 0 0 0 0 0 0 0 0 0 0 0 0 0 0 0 0 0 0 0 0 0 0 0 0 0 0 0 0 0 0
0 0 0 0 0 0 0 0 0 0 0 0 0 0 0 0 0 0 0 0 0 0 0 0 0 0 0 0 0 -1 0 0 0 0 0 0 0 0 0 0 0 0 0
0 0 0 0 0 0 0 0 0 0 0 0 0 0 0 0 0 0 0 0 0 0 0 0 0 0 0 0 0 0 0 0 0 0 0 0 0 0 0 0 0 0 0
0 0 0 0 0 0 0 0 0 0 0 0 0 0 0 0 0 0 0 0 0 0 0 0 0 0 0 0 0 0 0 0 0 -3 0 0 0 0 0 0 0 0 0
0 0 0 0 0 0 0 0 0 0 0 0 0 -1 0 0 0 0 0 -1 -1 0 0 0 0 0 0 0 0 0 0 0 0 0 0 -1 0 0 0 0 0 0 0
0 0 0 0 0 0 0 0 0 0 0 0 0 -1 -1 0 -1 0 0 0 0 0 0 0 0 0 0 0 0 0 0 0 0 0 0 0 0 0 0 0 0 0 0
0 0 0 0 0 0 0 0 0 0 0 0 0 0 0 0 0 0 0 0 0 -1 -1 0 -2 0 0 0 -1 0 0 -1 0 0 0 0 0 0 0 0 0 0 0
0 0 0 0 0 0 0 0 0 0 0 0 0 0 0 0 0 0 0 0 0 -1 0 0 0 0 0 0 0 0 -1 -2 0 0 0 0 0 0 0 0 0 0 0
0 0 0 0 0 0 0 0 0 0 0 0 0 0 0 0 0 0 0 0 0 0 0 -2 0 0 0 -1 -2 -1 -3 0 0 0 0 0 0 0 0 0 0 0 0
0 0 0 0 0 0 0 0 0 0 0 0 0 -1 -1 -5 -1 -1 -3 -1 0 0 0 -1 -1 -4 -1 -1 -1 -12 0 0 0 0 0 0 0 0 0 0 0 0 0
0 0 0 0 0 0 0 0 0 0 0 0 0 0 -1 0 0 0 0 0 0 0 0 -1 -1 -1 -1 -1 -1 0 0 0 0 0 0 0 0 0 0 0 0 0 0
0 0 0 0 0 0 0 0 0 0 0 0 0 0 0 0 0 0 0 0 0 0 -1 -1 0 -1 -7 -2 -1 0 0 0 0 0 0 0 0 0 0 0 0 0 0
0 0 0 0 0 0 0 0 0 0 0 0 0 0 0 0 0 0 0 0 -4 -1 -1 -1 0 -1 -3 0 0 0 0 0 0 0 0 0 0 0 0 0 0 0 0
0 0 0 0 0 0 0 0 0 0 0 0 0 0 0 0 0 0 0 -1 0 0 0 0 0 0 0 0 0 0 0 0 0 0 0 0 0 0 0 0 0 0 0
0 0 0 0 0 0 0 0 0 0 -1 -2 -1 -1 0 0 0 -1 -1 0 0 0 -1 0 0 0 0 0 0 0 0 0 0 0 0 0 0 0 0 0 0 0 0
0 0 0 0 0 0 0 0 0 -1 -1 -1 -1 0 0 0 0 0 0 0 0 0 0 0 0 0 0 0 0 0 0 0 0 0 0 0 0 0 0 0 0 0 0
0 0 0 0 0 0 0 0 0 0 0 0 0 0 0 0 0 0 0 0 0 0 0 0 0 0 0 0 0 0 0 0 0 0 0 0 0 0 0 0 0 0 0
0 0 0 0 0 0 0 0 0 0 0 0 0 0 0 0 0 0 0 0 0 0 0 0 0 0 0 0 0 0 0 0 0 0 0 0 0 0 0 0 0 0 0
0 0 0 0 0 0 0 0 0 0 0 0 0 0 0 0 0 0 0 0 0 0 0 0 0 0 0 0 0 0 0 0 0 0 0 0 0 0 0 0 0 0 0
0 0 0 0 0 0 0 0 0 0 0 0 0 0 0 0 0 0 0 0 0 0 0 0 0 0 0 0 0 0 0 0 0 0 0 0 0 0 0 0 0 0 0
0 0 0 0 0 0 0 0 0 0 0 0 0 0 0 0 0 0 0 0 0 0 0 0 0 0 0 0 0 0 0 0 0 0 0 0 0 0 0 0 0 0 0
Wind_Speed
6 6 6 5 5 5 5 6 6 6 7 7 7 8 7 8 8 7 7 7 8 7 7 8 9 7 5 5 4 4 5 4 5 3 3 5 9 10 9 7 6 6 6
5 5 6 5 6 5 5 6 6 6 6 7 7 7 7 7 7 7 7 6 8 9 8 9 11 8 9 7 7 10 9 5 5 5 3 4 6 13 10 10 6 5 5
3 3 5 5 5 6 5 5 6 8 10 8 6 5 7 7 7 7 7 9 9 11 10 10 13 9 12 10 9 12 10 8 5 4 5 3 3 9 6 5 6 5 5
4 4 4 5 6 6 6 6 6 6 7 7 9 10 7 8 8 8 7 9 10 12 11 11 13 13 14 13 13 14 11 10 10 4 4 5 4 6 8 9 7 4 7
6 7 10 10 9 8 7 6 6 7 7 8 10 10 11 9 8 7 8 9 10 12 12 13 14 15 19 18 11 13 13 12 12 11 5 3 6 8 15 10 9 7 6
4 6 8 9 11 10 11 11 10 9 7 7 11 12 13 11 21 22 18 12 13 13 13 13 14 17 19 25 27 27 18 15 18 13 13 13 14 11 12 11 10 7 7
3 6 7 7 9 10 9 11 13 14 13 14 15 14 15 15 25 28 26 15 14 15 15 14 13 12 16 16 22 28 29 29 29 18 19 18 14 15 15 15 15 13 10
6 7 7 8 10 10 11 14 14 13 15 15 17 17 17 16 30 31 30 19 17 18 18 17 17 16 16 16 16 17 19 20 22 18 19 18 14 15 17 18 17 11 4
7 9 8 8 11 13 15 16 15 15 16 17 18 20 20 21 32 32 28 18 19 21 18 18 18 19 22 25 17 18 19 20 22 27 30 24 19 24 22 11 12 12 3
8 9 9 9 10 14 16 16 16 16 19 16 20 20 22 23 34 38 32 15 20 17 20 20 24 24 28 27 19 17 19 21 17 15 18 22 19 18 31 22 16 16 10
9 10 10 10 11 13 16 14 15 16 17 18 20 19 21 22 25 37 39 21 17 17 17 16 15 27 30 31 30 19 22 16 20 15 12 13 12 14 16 16 16 15 14
10 11 11 11 10 11 14 14 15 15 17 17 18 18 15 17 25 28 35 36 33 21 20 17 17 28 27 29 26 32 31 24 12 12 12 14 14 13 13 14 13 10 8
12 13 13 13 12 12 13 15 14 14 13 15 14 15 15 13 14 29 33 34 33 24 17 25 33 32 32 26 31 32 26 14 13 12 14 13 12 12 12 9 9 10 9
13 13 13 13 14 12 10 11 12 12 13 14 14 16 16 15 14 13 13 14 23 23 22 18 21 24 25 22 16 18 14 13 14 12 12 11 9 10 11 11 9 10 9
12 13 13 11 13 14 12 12 12 14 16 16 15 14 16 15 14 26 25 15 13 19 22 15 13 10 12 12 13 13 12 12 13 12 11 10 10 10 11 10 10 10 11
12 11 11 12 12 12 12 13 21 29 33 34 35 29 16 32 38 37 36 35 34 34 18 15 14 13 11 12 12 10 11 13 12 11 12 12 12 10 10 9 9 11 10
12 13 11 13 12 12 12 13 16 16 30 33 33 33 34 33 35 34 33 33 32 29 15 14 13 12 10 9 8 9 10 12 12 10 12 13 11 11 14 11 10 11 10
12 16 12 11 11 11 12 14 13 15 16 16 24 27 30 32 32 32 30 26 13 15 13 13 12 12 10 7 8 9 8 8 9 10 11 11 13 14 13 12 11 11 10
10 10 11 11 11 13 13 13 13 14 15 15 15 19 19 29 32 32 31 12 11 13 13 16 13 11 9 7 8 9 9 8 9 9 10 12 13 13 13 11 11 13 12
9 15 14 10 11 11 11 12 13 13 14 13 13 13 13 16 12 12 12 11 9 10 9 9 10 6 6 8 8 8 8 9 9 9 9 10 10 11 11 12 11 11 10
8 10 13 9 10 10 11 12 12 12 13 13 13 14 28 13 12 12 12 12 12 11 8 4 4 5 6 7 8 8 8 8 8 8 9 9 10 10 10 10 11 10 10
7 9 9 9 9 10 11 11 11 11 12 13 12 12 26 10 10 11 11 12 12 12 11 8 6 5 3 3 6 7 7 8 8 8 9 10 10 10 10 10 10 10 9
6 9 9 8 8 11 10 10 11 11 11 12 12 11 11 10 10 11 11 11 10 10 9 9 8 8 7 7 6 5 7 8 8 9 11 11 11 10 11 12 12 10 9
4 7 8 8 7 8 9 10 10 13 12 11 11 11 11 10 10 11 11 10 10 10 9 9 8 10 8 8 7 7 7 7 7 8 12 11 10 12 10 10 10 13 11
4 5 5 6 7 8 9 9 10 11 11 11 11 11 11 11 10 11 11 10 10 10 12 11 9 11 12 12 10 9 10 12 9 10 8 11 13 13 11 10 11 10 10
4 4 4 4 6 7 8 9 9 10 10 10 11 11 11 11 11 10 10 11 10 10 11 9 12 15 13 11 12 13 14 14 12 13 9 10 11 10 9 11 13 8 8
Wind_Direction
24 12 18 5 16 8 6 353 348 338 342 341 338 333 326 312 304 295 277 265 259 252 239 229 236 215 221 224 217 196 206 165 162 239 158 167 169 171 177 178 178 179 204
25 11 353 356 353 356 350 337 332 321 320 317 331 333 325 313 304 294 288 274 261 256 250 244 240 228 223 205 202 216 213 209 145 166 166 153 183 180 174 177 179 195 205
17 10 344 334 329 326 324 326 330 327 326 317 308 297 301 304 306 295 281 277 266 259 248 246 249 223 230 219 213 219 208 210 197 153 172 163 143 171 152 168 183 193 208
358 354 320 308 308 312 306 294 294 300 301 304 309 300 291 288 280 273 269 263 263 263 258 251 249 240 236 224 220 220 215 203 207 179 184 166 149 171 173 176 184 191 202
351 349 335 324 320 317 302 289 293 295 294 291 297 295 297 284 283 272 264 265 266 267 264 261 262 250 239 231 225 222 209 213 212 205 198 173 172 164 188 179 186 188 201
333 308 300 303 304 305 306 306 301 297 287 289 294 290 285 284 290 289 284 271 260 258 262 259 252 256 255 243 236 231 211 206 216 209 208 215 201 194 184 180 170 172 209
292 277 266 270 276 278 279 291 292 294 299 294 294 291 288 286 288 289 286 276 264 258 255 256 255 247 244 244 246 242 234 222 219 217 215 214 206 189 175 183 190 187 202
280 279 282 289 291 296 297 295 295 296 293 291 291 291 288 285 287 287 286 280 272 264 256 250 249 251 242 237 236 241 241 237 228 222 225 228 212 191 194 189 187 177 53
284 287 295 308 309 309 304 302 302 301 295 291 286 284 282 283 286 287 288 286 278 270 262 256 246 246 244 240 234 231 238 240 240 231 234 228 229 191 183 158 175 160 173
304 313 316 318 310 304 301 301 299 295 291 292 289 284 284 284 284 287 286 279 274 270 265 259 249 243 244 236 231 227 233 232 230 226 218 230 222 206 191 189 174 185 173
321 314 311 309 306 298 294 294 294 293 291 290 287 286 283 282 283 284 284 279 270 269 265 259 252 251 246 238 230 225 227 223 229 219 212 212 199 197 198 199 193 189 186
316 314 312 305 298 296 291 292 289 288 286 286 286 286 283 284 283 288 291 285 279 270 263 259 255 257 255 245 235 233 232 224 219 211 203 210 209 202 199 195 187 193 194
319 313 307 301 297 293 294 293 292 287 282 284 284 286 288 286 285 289 295 299 292 283 274 266 259 255 257 256 248 238 229 220 213 208 209 210 208 205 187 176 169 131 104
307 305 306 304 304 300 292 289 290 289 286 285 284 281 280 279 277 277 275 276 282 287 300 301 261 251 252 252 249 242 221 212 205 210 209 205 196 193 190 173 171 162 146
304 305 304 301 303 299 290 288 283 278 279 282 280 282 287 285 280 278 277 270 265 272 280 285 289 253 249 242 240 216 212 207 205 203 196 187 188 185 189 177 174 176 175
303 304 303 303 299 296 295 290 283 289 292 292 293 292 288 290 294 293 289 285 280 277 274 273 270 268 236 239 235 205 204 210 205 195 188 184 181 178 174 172 172 178 174
297 301 303 300 296 296 297 296 299 294 294 295 296 297 298 297 295 290 286 284 282 275 258 260 267 261 247 245 207 202 207 211 198 188 186 184 172 164 161 169 168 175 175
296 297 294 292 291 294 296 295 295 298 303 300 298 298 299 302 302 300 296 289 275 265 264 260 244 256 249 206 205 208 206 202 196 182 182 169 169 164 165 172 178 179 173
299 300 297 294 294 296 297 297 297 297 297 297 296 298 305 304 304 300 298 290 261 251 244 244 239 241 226 201 205 206 197 181 175 169 170 171 170 164 169 171 170 172 167
304 294 294 302 304 303 304 304 306 308 306 309 315 311 309 305 319 327 317 301 279 269 268 228 218 197 194 202 201 192 168 172 169 171 164 162 162 165 162 157 155 155 162
307 306 309 304 310 309 311 313 310 313 315 318 317 320 325 343 327 324 321 324 321 295 248 168 165 194 198 177 172 169 164 163 162 157 150 150 151 147 147 147 149 151 145
317 301 308 309 310 316 318 314 318 319 324 322 323 324 336 336 333 333 334 336 340 349 4 17 24 22 40 134 146 138 137 137 133 137 136 137 135 137 137 139 140 140 143
303 308 308 310 315 319 322 325 325 327 329 329 329 331 336 340 342 344 343 344 349 357 5 19 25 31 34 43 53 100 127 134 137 139 137 135 138 140 142 142 139 135 137
294 305 310 320 330 331 330 329 328 333 334 338 340 342 344 346 348 350 353 353 358 5 11 16 24 35 42 47 54 67 86 99 114 127 131 134 134 138 137 134 138 137 138
300 299 302 316 332 336 335 335 336 339 340 346 348 351 352 353 358 1 2 6 11 15 19 20 22 30 42 57 64 75 98 103 112 121 124 127 129 131 129 124 124 122 127
303 300 299 315 335 338 339 336 339 343 347 349 351 354 357 358 0 3 7 13 16 19 24 25 28 36 44 48 64 79 94 97 96 101 110 117 115 116 114 116 118 121 128